Tracking 17842 objects as of 30-August-2016
HD Live streaming from Space Station
objects crossing your sky now

NAVSTAR 37 (USA 117)

Track NAVSTAR 37 (USA 117) now!
NAVSTAR 37 (USA 117) is classified as:


NORAD ID: 23833
Int'l Code: 1996-019A
Perigee: 20,706.8 km
Apogee: 20,748.2 km
Inclination: 54.3 °
Period: 739.9 minutes
Semi major axis: 27098 km
RCS: 4.1981 m2 (large)
Launch date: March 28, 1996
Source: United States (US)
Launch site: AIR FORCE EASTERN TEST RANGE (AFETR)
PRN:
Your satellite tracking list
Your tracking list is empty





NASA's NSSDC Master Catalog

Two Line Element Set (TLE):
1 23833U 96019A   16242.06087355 -.00000055  00000-0  00000+0 0  9993
2 23833  54.2982  43.9177 0007638 282.0093 306.4066  1.94618566149241
Source of the keplerian elements: AFSPC

N2YO: 914